Location: Home
(42.5358°N, 72.7383°W)
Time: 09:26:42
(UTC-05:00)

Vanguard 2 Rocket - Pass Details

Date: 02 December 2021
Orbit: 553 x 3325 km, 32.9° (Epoch: 22 January)

Event Time Altitude Azimuth Distance (km) Brightness Sun altitude
Rises 16:36:37 0° 201° (SSW) 3,104 10.5 -3.8°
Reaches altitude 10° 16:39:37 10° 178° (S) 2,461 9.5 -4.3°
Maximum altitude 16:43:06 16° 141° (SE) 2,409 8.9 -4.9°
Drops below altitude 10° 16:47:36 10° 106° (ESE) 3,349 9.4 -5.6°
Enters shadow 16:51:37 - 91° (E) 4,563 9.9 -6.3°
Sets 16:52:49 0° 89° (E) 4,938 - -6.5°
